Regional Weather Roundup
Issued by NWS Cleveland, OH

Home | Current Version | Previous Version | Graphics & Text | Print | Product List | Glossary On
Versions: 1 2 3 4 5 6 7 8 9 10 11 12 13 14 15 16 17 18 19 20 21 22 23 24 25 26 27 28 29 30 31 32 33 34 35 36 37 38 39 40 41 42 43 44 45 46 47 48 49 50
000
ASUS41 KCLE 250202
RWRCLE
OHIO REGIONAL WEATHER ROUNDUP
NATIONAL WEATHER SERVICE CLEVELAND, OH
1000 PM EDT MON APR 24 2017

NOTE: "FAIR" INDICATES FEW OR NO CLOUDS BELOW 12,000 FEET WITH NO
SIGNIFICANT WEATHER AND/OR OBSTRUCTIONS TO VISIBILITY.

OHZ001>008-015>018-024>027-034-035-043-044-250300-
   NORTHWEST OHIO

CITY           SKY/WX    TMP DP  RH WIND       PRES   REMARKS
DEFIANCE       CLOUDY    56  37  49 E12       29.86F
FINDLAY        CLOUDY    58  41  53 E8        29.86S
TOLEDO EXPRESS CLOUDY    53  44  71 E13       29.88F
TOLEDO EXEC    PTCLDY    52  46  80 E8        29.90S
LIMA           CLOUDY    62  49  62 E15       29.86R
$$

OHZ009>014-019>023-028>033-038-089-250300-
   NORTHEAST OHIO

CITY           SKY/WX    TMP DP  RH WIND       PRES   REMARKS
CLE-HOPKINS    CLOUDY    62  43  49 SE15G22   29.96R
CLE-LAKEFRONT  CLOUDY    63  43  48 SE13G20   29.93R
CUY CO. ARPT   MOCLDY    64  32  29 SE18      29.95S
LORAIN-ELYRIA  CLOUDY    61  43  51 SE17G25   29.93R
ASHTABULA      CLOUDY    51  46  83 E3        29.98S
AKRON-CANTON   CLOUDY    57  43  59 E16       29.96S
WOOSTER        CLOUDY    56  45  66 SE15      29.94S
MANSFIELD      CLOUDY    58  46  64 E17G26    29.91S
YOUNGSTOWN     LGT RAIN  58  41  53 SE14      29.99R
$$

OHZ042-051>053-060>062-070>072-077>081-250300-
  SOUTHWEST OHIO

CITY           SKY/WX    TMP DP  RH WIND       PRES   REMARKS
CINC-COVINGTON CLOUDY    63  52  67 E15       29.81S
CINC-LUNKEN    CLOUDY    64  55  72 E6        29.82S
HAMILTON       CLOUDY    63  53  70 E7        29.83R
DAYTON         MOCLDY    61  50  67 E17       29.85R
WRIGHT-PAT AFB MOCLDY    61  51  70 E10       29.84F
DAYTON GENERAL CLEAR     59  51  75 E8        29.83S
WILMINGTON     CLOUDY    58  52  80 E14       29.84F
$$

OHZ036-037-039>041-045>050-054>059-063>069-073>076-082>088-250300-
  CENTRAL AND SOUTHEAST OHIO

CITY           SKY/WX    TMP DP  RH WIND       PRES   REMARKS
COLUMBUS       CLOUDY    57  48  72 E15G25    29.88F
OSU AIRPORT    CLOUDY    58  48  69 E10       29.88F
BOLTON FIELD   CLOUDY    58  47  69 E8        29.89S
RICKENBACK AFB CLOUDY    57  48  71 E10       29.87F
NEWARK         CLOUDY    57  46  66 E12       29.90F
MARION         PTCLDY    58  46  64 SE12      29.90R
LANCASTER      CLOUDY    58  48  69 E9        29.89S
ZANESVILLE     CLOUDY    55  46  71 E6        29.92S
NEW PHILLY     NOT AVBL
$$




USA.gov is the U.S. government's official web portal to all federal, state and local government web resources and services.